EW7069 Weather Reports


time (UTC)temp
C
wind
direction
speed
KPH
gust
KPH
rain 1hr
cm
rain 24hr
cm
rain mn
cm
humidity
%
barometer
mb
20260509000003 16 225 6.4 14.5 0.00 0.00 0.00 29 1004.9
20260508235004 16 225 4.8 6.4 0.00 0.00 0.00 26 1006.2
20260508234004 17 225 4.8 9.7 0.00 0.00 0.00 24 1006.0
20260508232004 17 225 9.7 14.5 0.00 0.00 0.00 21 1006.7
20260508230003 17 225 9.7 14.5 0.00 0.00 0.00 23 1006.9
20260508225004 18 225 6.4 6.4 0.00 0.00 0.00 23 1006.6
20260508224003 19 225 9.7 12.9 0.00 0.00 0.00 21 1006.4
20260508222004 20 225 8.0 11.3 0.00 0.00 0.00 21 1003.9
20260508221004 20 225 11.3 17.7 0.00 0.00 0.00 19 1002.9
20260508220003 21 225 8.0 12.9 0.00 0.00 0.00 19 1002.4
20260508215004 20 225 6.4 9.7 0.00 0.00 0.00 20 1001.0
20260508214004 21 225 8.0 14.5 0.00 0.00 0.00 18 1000.5
20260508212004 19 225 8.0 11.3 0.00 0.00 0.00 23 998.7
20260508211004 20 225 6.4 11.3 0.00 0.00 0.00 19 998.4
20260508210004 21 225 8.0 14.5 0.00 0.00 0.00 20 998.0
20260508205004 19 225 11.3 20.9 0.00 0.00 0.00 21 997.1
20260508204003 17 225 9.7 17.7 0.00 0.00 0.00 21 996.8
20260508203004 18 280 11.3 17.7 0.00 0.00 0.00 19 996.9
20260508202003 20 229 16.1 20.9 0.00 0.00 0.00 17 1005.7
20260508201004 21 225 11.3 12.9 0.00 0.00 0.00 19 1005.3
20260508200004 18 225 9.7 16.1 0.00 0.00 0.00 23 1004.9
20260508194004 18 293 11.3 17.7 0.00 0.00 0.00 23 1004.4
20260508193004 18 314 6.4 8.0 0.00 0.00 0.00 24 1004.3
20260508191003 18 6 9.7 22.5 0.00 0.00 0.00 22 1003.9
20260508190004 18 335 9.7 14.5 0.00 0.00 0.00 24 1003.5
20260508185004 18 299 12.9 19.3 0.00 0.00 0.00 23 1003.2
20260508183004 17 22 9.7 17.7 0.00 0.00 0.00 21 1002.3
20260508182004 18 31 9.7 17.7 0.00 0.00 0.00 23 1001.9
20260508181003 18 204 9.7 17.7 0.00 0.00 0.00 23 1001.7
20260508180004 17 291 12.9 24.1 0.00 0.00 0.00 20 1001.4
20260508175004 17 267 12.9 17.7 0.00 0.00 0.00 21 1001.1
20260508174003 17 225 12.9 24.1 0.00 0.00 0.00 19 1001.1
20260508173004 18 225 8.0 16.1 0.00 0.00 0.00 23 1001.1
20260508172004 17 225 9.7 17.7 0.00 0.00 0.00 23 1001.2
20260508171004 17 225 11.3 17.7 0.00 0.00 0.00 21 1001.1
20260508170004 16 225 8.0 14.5 0.00 0.00 0.00 24 1000.5
20260508165004 16 225 8.0 17.7 0.00 0.00 0.00 24 1000.3
20260508164003 16 225 6.4 9.7 0.00 0.00 0.00 29 999.9
20260508163004 17 225 6.4 12.9 0.00 0.00 0.00 28 999.6
20260508162004 16 225 3.2 11.3 0.00 0.00 0.00 30 999.5
20260508161004 16 225 6.4 12.9 0.00 0.00 0.00 33 999.3
20260508160004 15 225 8.0 12.9 0.00 0.00 0.00 33 999.2
20260508155003 15 223 6.4 11.3 0.00 0.00 0.00 32 999.2
20260508153004 16 214 4.8 6.4 0.00 0.00 0.00 33 998.9
20260508152005 15 110 1.6 4.8 0.00 0.00 0.00 38 998.9
20260508151004 15 270 4.8 6.4 0.00 0.00 0.00 35 998.8
20260508150004 15 270 4.8 6.4 0.00 0.00 0.00 38 998.8
20260508145004 15 247 4.8 6.4 0.00 0.00 0.00 37 998.7
20260508144004 14 5 3.2 3.2 0.00 0.00 0.00 37 998.6
20260508143004 14 299 3.2 4.8 0.00 0.00 0.00 44 998.7
20260508142004 13 270 1.6 3.2 0.00 0.00 0.00 46 998.6
20260508141004 13 270 1.6 3.2 0.00 0.00 0.00 49 998.7
20260508140005 12 270 3.2 4.8 0.00 0.00 0.00 51 998.7
20260508135004 11 270 4.8 6.4 0.00 0.00 0.00 57 998.7
20260508134004 11 270 4.8 6.4 0.00 0.00 0.00 59 998.8
20260508133004 11 270 4.8 6.4 0.00 0.00 0.00 62 998.8
20260508132004 10 270 4.8 6.4 0.00 0.00 0.00 65 998.9
20260508131005 10 270 4.8 8.0 0.00 0.00 0.00 71 999.0
20260508130004 10 270 4.8 9.7 0.00 0.00 0.00 79 999.1
20260508125004 9 270 6.4 9.7 0.00 0.00 0.00 85 999.2
20260508124004 8 270 6.4 9.7 0.00 0.00 0.00 88 999.3
20260508123005 6 270 4.8 6.4 0.00 0.00 0.00 89 999.5
20260508121003 4 270 1.6 6.4 0.00 0.00 0.00 89 999.5
20260508120003 3 270 0.0 1.6 0.00 0.00 0.00 89 999.7
20260508115003 3 0 0.0 0.0 0.00 0.00 0.00 88 999.7
20260508112004 1 0 0.0 0.0 0.00 0.00 0.00 84 999.4
20260508110004 1 0 0.0 0.0 0.00 0.00 0.00 83 998.4
20260508105003 1 0 0.0 0.0 0.00 0.00 0.00 83 998.3
20260508104004 1 0 0.0 0.0 0.00 0.00 0.00 83 997.3
20260508103003 1 0 0.0 0.0 0.00 0.00 0.00 83 996.7
20260508102003 1 0 0.0 0.0 0.00 0.00 0.00 83 996.6
20260508101004 1 0 0.0 0.0 0.00 0.00 0.00 83 996.6
20260508100004 1 0 0.0 0.0 0.00 0.00 0.00 82 996.8
20260508095003 1 0 0.0 0.0 0.00 0.00 0.00 82 997.1
20260508094003 1 0 0.0 0.0 0.00 0.00 0.00 82 996.7
20260508093003 1 0 0.0 0.0 0.00 0.00 0.00 82 996.8
20260508091003 2 0 0.0 0.0 0.00 0.00 0.00 81 997.1
20260508090004 2 0 0.0 0.0 0.00 0.00 0.00 81 996.9
20260508085003 2 0 0.0 0.0 0.00 0.00 0.00 81 997.3
20260508084003 2 0 0.0 0.0 0.00 0.00 0.00 81 997.4
20260508083003 2 0 0.0 0.0 0.00 0.00 0.00 81 997.1
20260508082003 2 0 0.0 0.0 0.00 0.00 0.00 81 997.2
20260508081004 3 0 0.0 0.0 0.00 0.00 0.00 85 997.4
20260508080003 3 0 0.0 0.0 0.00 0.00 0.00 85 997.7
20260508075003 3 0 0.0 0.0 0.00 0.00 0.00 85 997.5
20260508074003 3 0 0.0 0.0 0.00 0.00 0.00 84 997.6
20260508073002 3 0 0.0 0.0 0.00 0.00 0.00 84 997.9
20260508071002 2 0 0.0 0.0 0.00 0.00 0.00 78 998.0
20260508070002 2 0 0.0 0.0 0.00 0.00 0.00 78 997.8
20260508065002 2 0 0.0 0.0 0.00 0.00 0.00 76 998.0
20260508064002 2 0 0.0 0.0 0.00 0.00 0.00 76 998.1
20260508062002 2 0 0.0 0.0 0.00 0.00 0.00 74 998.0
20260508060002 3 0 0.0 0.0 0.00 0.00 0.00 78 998.6
20260508055002 3 0 0.0 0.0 0.00 0.00 0.00 78 998.5
20260508054002 3 0 0.0 0.0 0.00 0.00 0.00 77 998.3
20260508053002 3 0 0.0 0.0 0.00 0.00 0.00 77 998.4
20260508052002 3 0 0.0 0.0 0.00 0.00 0.00 77 998.6
20260508051002 3 0 0.0 0.0 0.00 0.00 0.00 77 998.7
20260508045002 3 0 0.0 0.0 0.00 0.00 0.00 74 998.4
20260508044002 3 0 0.0 0.0 0.00 0.00 0.00 73 998.6
20260508043003 3 0 0.0 0.0 0.00 0.00 0.00 72 998.8
20260508042002 3 0 0.0 0.0 0.00 0.00 0.00 71 998.9
20260508041002 4 0 0.0 0.0 0.00 0.00 0.00 70 999.0
20260508040003 4 0 0.0 0.0 0.00 0.00 0.00 69 999.2
20260508034002 5 0 0.0 0.0 0.00 0.00 0.00 65 999.5
20260508032003 5 0 0.0 0.0 0.00 0.00 0.00 62 999.7
20260508031002 5 0 0.0 0.0 0.00 0.00 0.00 61 999.9
20260508024002 7 0 0.0 0.0 0.00 0.00 0.00 55 1000.1
20260508023002 7 0 0.0 0.0 0.00 0.00 0.00 54 1000.2
20260508022002 7 270 0.0 1.6 0.00 0.00 0.00 53 1000.1
20260508020002 8 270 1.6 3.2 0.00 0.00 0.00 52 1000.1
20260508014002 9 270 3.2 9.7 0.00 0.00 0.00 47 999.8
20260508013002 9 270 6.4 9.7 0.00 0.00 0.00 45 1000.2
20260508012003 10 266 8.0 12.9 0.00 0.00 0.00 43 1000.5
20260508011002 10 292 6.4 12.9 0.00 0.00 0.00 42 1000.7
20260508010003 10 275 6.4 12.9 0.00 0.00 0.00 40 1002.2
20260508005002 10 248 4.8 6.4 0.00 0.00 0.00 35 1002.7
20260508004002 10 266 6.4 12.9 0.00 0.00 0.00 34 1002.9
20260508003003 10 262 6.4 17.7 0.00 0.00 0.00 33 1003.1
20260508002002 10 249 8.0 14.5 0.00 0.00 0.00 31 1003.3
20260508001003 10 293 8.0 12.9 0.00 0.00 0.00 31 1003.7